sat.trackr.live / text

‹ back to catalog

ONEWEB-0175

NORAD 48073 · 2021-025AH

PAYLOAD ACTIVE UNKNOWN

§ Identity

Operator
Country
UK
Launch date
2021-03-25
Launch site
VOSTO
Launch vehicle
Mass (kg)
RCS (m²)

Purposes: comms

External: N2YO · Heavens-Above · Gunter

§ Orbital elements

Epoch: 2026-09-15T21:21:09.141696Z

Period
109.63 min
Inclination
87.8929°
Eccentricity
0.0001916
Mean motion
13.13468989 rev/d
Perigee alt
1,208.3 km
Apogee alt
1,211.2 km
Semi-major
7,587.9 km
B*
8.9523e-4
RAAN
302.1654°
Arg perigee
85.4361°
Mean anomaly
274.6987°
Rev number
26,539

§ Raw data

ONEWEB-01751 48073U 21025AH  26258.88968914  .00000340  00000+0  89523-3 0  99942 48073  87.8929 302.1654 0001916  85.4361 274.6987 13.13468989265392

JSON: /api/v1/satellites/48073 · /tle

For live sub-satellite position, see the globe view (requires WebGL).

§ Visibility from observer

Set your observer location to see the next 7 days of passes ≥ 10°. The values pass through the URL so the page stays shareable.

No JS? Fill the form by hand. The geolocation button needs JavaScript.